Regional Weather Roundup
Issued by NWS

Home | Current Version | Previous Version | Text Only | Print | Product List | Glossary On
Versions: 1 2 3 4 5 6 7 8 9 10 11 12 13 14 15 16 17 18 19 20 21 22 23 24 25 26 27 28 29 30 31 32 33 34 35 36 37 38 39 40 41 42 43 44 45 46 47 48 49 50
000
ASUS43 KIND 040809
RWRIN

WEATHER ROUNDUP FOR INDIANA
NATIONAL WEATHER SERVICE INDIANAPOLIS IN
400 AM EDT SAT JUL 04 2015

NOTE: "FAIR" INDICATES FEW OR NO CLOUDS BELOW 12,000 FEET WITH NO
SIGNIFICANT WEATHER AND/OR OBSTRUCTIONS TO VISIBILITY.

* - STATION DOES NOT REPORT WEATHER SUCH AS PRECIPITATION OR FOG.

+ - STATION NOT QUALITY CONTROLLED BY THE NATIONAL WEATHER SERVICE.
    USE DATA WITH CAUTION...ESPECIALLY DEWPOINT AND RELATIVE
    HUMIDITY OBSERVATIONS.

INZ001>003-010>013-019-020-040900-
NORTHWEST INDIANA

CITY           SKY/WX    TMP DP  RH WIND       PRES   REMARKS
GARY /AIRPORT/   N/A    N/A N/A N/A CALM      29.96S FOG
KNOX *+          N/A     55  55 100 CALM      29.94F
LA PORTE +     PTCLDY   N/A N/A N/A CALM      29.96S HAZE
MICHIGAN CITY+ CLEAR     54  54 100 CALM      29.96S FOG
MONTICELLO +   CLEAR     58  58 100 CALM      29.94S
RENSSELAER +   CLEAR     57  57 100 CALM      29.95F
VALPARAISO     CLEAR     56  54  93 CALM      29.96S

$$

LMZ046-743>745-040900-
SOUTHERN LAKE MICHIGAN

STATION/POSITION TIME  TEMP    WIND        PRES    WAVE
                       AIR SEA DIR/SP/G            HT
                 (UTC) (F)     (DEG/KT/KT) (MB)    (FT)
BURNS HARBOR     0800   62     220/  4/  5 1014.9S
MICHIGAN CITY    0800   59     210/  4/  5   N/A
5NW MICH CITY    0800   63 63  240/  4/  4   N/A     1

$$

INZ004-005-014>016-021>024-040900-
NORTH CENTRAL INDIANA

CITY           SKY/WX    TMP DP  RH WIND       PRES   REMARKS
GOSHEN         CLEAR     56  53  90 CALM      29.94F FOG
LOGANSPORT +   CLEAR     59  55  88 CALM      29.95S
PERU/GRISSOM   CLEAR     60  59  96 CALM      29.94S
ROCHESTER +    CLEAR     59  59 100 CALM      29.95S FOG
SOUTH BEND     CLEAR     57  53  86 CALM      29.96S
WARSAW +       FOG       54  54 100 CALM      29.94F VSB 3/4

$$

INZ006>009-017-018-025>027-040900-
NORTHEAST INDIANA

CITY           SKY/WX    TMP DP  RH WIND       PRES   REMARKS
ANGOLA *+        N/A     55  43  62 CALM      29.95S
AUBURN +       CLEAR     55  54  94 CALM      29.95F FOG
FORT WAYNE     PTCLDY    58  57  97 CALM      29.95S
HUNTINGTON +   CLEAR     57  56  97 CALM      29.94F FOG

$$

INZ028-029-035-036-043>045-051>053-040900-
WEST CENTRAL INDIANA

CITY           SKY/WX    TMP DP  RH WIND       PRES   REMARKS
CRAWFORDSVL +  FOG       57  57  98 CALM      29.95S VSB 3/4
GREENCASTLE +  CLEAR     63  59  88 CALM      29.94S
LAFAYETTE      CLEAR     57  56  96 NW3       29.94F FOG
TERRE HAUTE    PTCLDY    65  63  93 N5        29.94S

$$

INZ030>032-037>040-046>048-054>057-064-065-040900-
CENTRAL INDIANA

CITY           SKY/WX    TMP DP  RH WIND       PRES   REMARKS
CP ATTERBURY + MOCLDY    63  61  94 CALM      29.93S FOG
FISHERS *+     PTCLDY    61  61 100 CALM      29.93F
FRANKFORT +    CLEAR    N/A N/A N/A CALM      29.96S FOG
GREENWOOD *+   MOCLDY    66  61  82 CALM      29.94F
INDIANAPOLIS   MOCLDY    66  61  84 N6        29.91F
-EAGLE CREEK   PTCLDY    65  62  90 N6        29.93F
KOKOMO *+      CLEAR     59  55  88 CALM      29.95S
MARION +       CLEAR     57  57  98 CALM      29.96R FOG
MT COMFORT *+  PTCLDY    63 N/A N/A CALM      29.94S
SHELBYVILLE    CLOUDY    69  65  86 N5        29.92S FOG
ZIONSVILLE +   CLEAR     60  57  90 CALM      29.95S FOG

$$

INZ033-034-041-042-049-050-058-059-040900-
EAST CENTRAL INDIANA

CITY           SKY/WX    TMP DP  RH WIND       PRES   REMARKS
MUNCIE         CLEAR     62  60  93 CALM      29.94F FOG

$$

INZ060-061-067>069-081>083-085>088-040900-
SOUTHWEST INDIANA

CITY           SKY/WX    TMP DP  RH WIND       PRES   REMARKS
EVANSVILLE     MOCLDY    69  66  90 N5        29.93R FOG
HUNTINGBURG *+ MOCLDY    66  63  88 CALM      29.93R VSB 3/4
WASHINGTON +   FAIR      64  60  87 NW3       29.92S FOG

$$

INZ062-063-066-070>080-084-089>092-040900-
SOUTH CENTRAL AND SOUTHEAST INDIANA

CITY           SKY/WX    TMP DP  RH WIND       PRES   REMARKS
BLOOMINGTON    CLOUDY    65  64  97 CALM      29.93S FOG
MADISON *+       N/A     64  63  94 CALM      29.93S VSB 1/4
NORTH VERNON + MOCLDY    66  66 100 CALM      29.93S
SEYMOUR +      CLEAR     66  64  94 N3        29.92S FOG

$$



USA.gov is the U.S. government's official web portal to all federal, state and local government web resources and services.